Flag for U.S.A. Weather past 2 weeks in Avalon (Santa Catalina Island), California, U.S.A.

Now
51 °F

Clear.


Feels Like: 49 °F
Forecast: 56 / 68 °F
Wind: 6 mph from Northwest

Location: Catalina Airport

Current Time: Mar 3, 2015 at 11:09:04 PM

Latest Report: Mar 3, 2015 at 10:51 PM


Visibility: 10 mi

Pressure: 29.96 "Hg

Humidity: 52%

Dew point: 34 °F

Location of Avalon (Santa Catalina Island)Location

Historic Weather in Avalon (Santa Catalina Island) — Graph

°F

Avalon (Santa Catalina Island) temperature yesterday

Maximum temperature yesterday: 51 °F (at 12:51 PM)
Minimum temperature yesterday: 45 °F (at 2:51 AM)
Average temperature yesterday: 47 °F

Past Weeks' High & Low Weather Summary

 TemperatureHumidityPressure
High63 °F (Feb 18, 3:51 PM)100% (Feb 16, 9:51 PM)30.26 "Hg (Feb 16, 9:51 PM)
Low44 °F (Mar 3, 4:51 AM)26% (Feb 25, 2:51 AM)29.78 "Hg (Feb 27, 4:51 PM)
Average52 °F80%29.98 "Hg
* Reported Feb 16 9:51 PM — Mar 3 9:51 PM, Avalon (Santa Catalina Island), Weather by CustomWeather, © 2015

Note: Actual official high and low records may vary slightly from our data, if they occured in-between our weather recording intervals... More about our weather records

Advertising

Avalon (Santa Catalina Island) weather history for previous 24 hours

 ConditionsComfort  
Time TempWeatherWind HumidityBarometerVisibility
9:51 PM
Tue, Mar 3
49 °FClear.8 mph77%29.96 "Hg10 mi
8:51 PM48 °FClear.10 mph37%29.96 "Hg10 mi
7:51 PM48 °FClear.10 mph33%29.95 "Hg10 mi
6:51 PM48 °FClear.10 mph37%29.93 "Hg10 mi
5:51 PM49 °FSunny.12 mph39%29.92 "Hg10 mi
4:51 PM51 °FSunny.13 mph39%29.91 "Hg10 mi
3:51 PM52 °FSunny.10 mph38%29.91 "Hg10 mi
2:51 PM53 °FPassing clouds.9 mph39%29.92 "Hg10 mi
1:51 PM52 °FOvercast.9 mph43%29.93 "Hg10 mi
12:51 PM54 °FSunny.3 mph40%29.94 "Hg10 mi
11:51 AM54 °FSunny.7 mph40%29.96 "Hg10 mi
10:51 AM52 °FSunny.5 mph43%29.97 "Hg10 mi
9:51 AM50 °FPassing clouds.5 mph44%29.97 "Hg10 mi
8:51 AM48 °FScattered clouds.6 mph50%29.98 "Hg10 mi
7:51 AM46 °FPartly sunny.7 mph56%29.96 "Hg10 mi
7:04 AM46 °FLight rain. Mostly cloudy.8 mph56%29.93 "Hg4 mi
6:51 AM46 °FPartly sunny.3 mph58%29.94 "Hg9 mi
5:51 AM45 °FClear.7 mph68%29.93 "Hg10 mi
4:51 AM44 °FClear.8 mph60%29.92 "Hg10 mi
3:51 AM45 °FClear.8 mph58%29.91 "Hg10 mi
3:00 AM46 °FLight rain. Overcast.8 mph56%29.92 "Hg9 mi
1:51 AM46 °FPassing clouds.8 mph56%29.95 "Hg10 mi
12:51 AM46 °FPassing clouds.7 mph56%29.95 "Hg10 mi
11:51 PM
Mon, Mar 2
46 °FClear.5 mph58%29.96 "Hg10 mi
Weather by CustomWeather, © 2015

See weather overviewHow to use our weather pages